User: anonymous   Login
Location: Unspecified
(0.0000°N, 0.0000°E)
Time: 01:55:21
(UTC+00:00)
Language:

USA 234 - Orbit

View from above orbital plane
View from above orbital plane
View from above satellite
View from above satellite

Ground track
Ground track

The orbit data is extracted from the following two-line orbital elements,

1 38109U 12014A   17147.88392528 0.00000000  00000-0  00000-0 0    07
2 38109 122.9965 292.2850 0009003 152.3771 207.6229 13.41416178    07
Epoch (UTC): 27 May 2017 21:12:51
Eccentricity: 0.0009003
inclination: 122.9965°
perigee height: 1097 km
apogee height: 1111 km
right ascension of ascending node: 292.2850°
argument of perigee: 152.3771°
revolutions per day: 13.41416178
mean anomaly at epoch: 207.6229°
orbit number at epoch: 0

The dashed part of the orbit path shows where the satellite is in the earth's shadow,  

DLR